Weather History for Cecil Field, FL

Change the Weather History Date:

Wednesday, October 2, 2013

  Actual Average (KJAX) Record (KJAX)
Temperature  
Mean Temperature 70 °F 74 °F  
Max Temperature 82 °F 84 °F 93 °F (1977)
Min Temperature 59 °F 65 °F 43 °F (1876)
Degree Days  
Heating Degree Days 0 0  
Month to date heating degree days 0  
Since 1 July heating degree days 0  
Cooling Degree Days 6 10  
Month to date cooling degree days 20  
Year to date cooling degree days 2406  
Growing Degree Days 20 (Base 50)    
Moisture  
Dew Point 63 °F    
Average Humidity 92    
Maximum Humidity 100    
Minimum Humidity 54    
Precipitation  
Precipitation 0.00 in 0.20 in 3.57 in (1898)
Month to date precipitation 0.41  
Year to date precipitation 43.96  
Snow  
Snow 0.00 in 0.00 in 0.00 in (2002)
Month to date snowfall 0.0  
Since 1 July snowfall 0.0  
Since 1 September snowfall 0.0  
Snow Depth -    
Sea Level Pressure  
Sea Level Pressure 30.09 in    
Wind  
Wind Speed 2 mph (ENE)    
Max Wind Speed 14 mph    
Max Gust Speed -    
Visibility 7 miles    
Events      
T = Trace of Precipitation, MM = Missing Value Source: NWS Daily Summary

Daily Weather History Graph

Daily Weather History Graph

Search for Another Location

Airport:

Trip Planner

Search our weather history database for the weather conditions in past years. The results will help you decide how hot, cold, wet, or windy it might be!

Date:

Astronomy

Oct. 02, 2013 Rise Set
Actual Time 7:21 AM EDT 7:11 PM EDT
Civil Twilight 6:57 AM EDT 7:35 PM EDT
Nautical Twilight 6:29 AM EDT 8:03 PM EDT
Astronomical Twilight 6:02 AM EDT 8:30 PM EDT
Moon 5:01 AM EDT (10/2) 5:40 PM EDT (10/2)
Length of Visible Light 12h 37m
Length of Day
11h 49m
Waning Crescent, 6% of the Moon is Illuminated
Oct 2
Waning Crescent
Oct 4
New
Oct 11
First Quarter
Oct 18
Full
Oct 26
Last Quarter

Hourly Weather History & Observations

Time (EDT) Temp. Heat Index Dew Point Humidity Pressure Visibility Wind Dir Wind Speed Gust Speed Precip Events Conditions
12:15 AM 62.6 °F - 62.6 °F 100% 30.11 in 8.0 mi Calm Calm - N/A   Clear
12:35 AM 62.6 °F - 62.6 °F 100% 30.11 in 8.0 mi Calm Calm - N/A   Clear
12:55 AM 62.6 °F - 62.6 °F 100% 30.11 in 7.0 mi Calm Calm - N/A   Clear
1:15 AM 62.6 °F - 62.6 °F 100% 30.11 in 6.0 mi Calm Calm - N/A   Clear
1:35 AM 62.6 °F - 62.6 °F 100% 30.10 in 6.0 mi Calm Calm - N/A   Clear
1:55 AM 62.6 °F - 62.6 °F 100% 30.10 in 4.0 mi Calm Calm - N/A   Clear
2:15 AM 60.8 °F - 60.8 °F 100% 30.10 in 4.0 mi Calm Calm - N/A   Clear
2:35 AM 62.6 °F - 62.6 °F 100% 30.10 in 7.0 mi Calm Calm - N/A   Clear
2:55 AM 60.8 °F - 60.8 °F 100% 30.10 in 5.0 mi Calm Calm - N/A   Clear
3:15 AM 60.8 °F - 60.8 °F 100% 30.09 in 6.0 mi Calm Calm - N/A   Clear
3:35 AM 60.8 °F - 60.8 °F 100% 30.08 in 5.0 mi Calm Calm - N/A   Clear
3:55 AM 59.0 °F - 59.0 °F 100% 30.08 in 8.0 mi Calm Calm - N/A   Clear
4:15 AM 62.6 °F - 62.6 °F 100% 30.08 in 6.0 mi Calm Calm - N/A   Clear
4:35 AM 60.8 °F - 60.8 °F 100% 30.08 in 5.0 mi Calm Calm - N/A   Clear
4:55 AM 60.8 °F - 60.8 °F 100% 30.07 in 4.0 mi Calm Calm - N/A   Clear
5:15 AM 59.0 °F - 59.0 °F 100% 30.07 in 4.0 mi Calm Calm - N/A   Clear
5:35 AM 59.0 °F - 59.0 °F 100% 30.07 in 5.0 mi Calm Calm - N/A   Clear
5:55 AM 59.0 °F - 59.0 °F 100% 30.08 in 4.0 mi Calm Calm - N/A   Clear
6:15 AM 59.0 °F - 59.0 °F 100% 30.09 in 5.0 mi Calm Calm - N/A   Clear
6:35 AM 59.0 °F - 59.0 °F 100% 30.09 in 5.0 mi Calm Calm - N/A   Clear
6:50 AM 59.0 °F - 59.0 °F 100% 30.09 in 7.0 mi Calm Calm - N/A   Clear
7:50 AM 59.0 °F - 59.0 °F 100% 30.10 in 10.0 mi Calm Calm - N/A   Clear
8:50 AM 64.4 °F - 64.4 °F 100% 30.11 in 10.0 mi North 5.8 mph - N/A   Clear
9:50 AM 73.4 °F - 66.2 °F 78% 30.13 in 10.0 mi NE 5.8 mph - N/A   Clear
10:50 AM 77.0 °F - 66.2 °F 69% 30.12 in 10.0 mi NE 6.9 mph - N/A   Partly Cloudy
11:50 AM 80.6 °F 82.7 °F 66.2 °F 61% 30.12 in 10.0 mi ENE 11.5 mph - N/A   Scattered Clouds
12:50 PM 80.6 °F 82.3 °F 64.4 °F 58% 30.11 in 10.0 mi ENE 13.8 mph - N/A   Mostly Cloudy
1:50 PM 82.4 °F 83.9 °F 64.4 °F 54% 30.08 in 10.0 mi NE 9.2 mph - N/A   Mostly Cloudy
2:50 PM 82.4 °F 84.6 °F 66.2 °F 58% 30.07 in 10.0 mi ENE 11.5 mph - N/A   Mostly Cloudy
3:50 PM 82.4 °F 84.6 °F 66.2 °F 58% 30.07 in 10.0 mi ENE 11.5 mph - N/A   Mostly Cloudy
4:50 PM 80.6 °F 82.7 °F 66.2 °F 61% 30.07 in 10.0 mi East 11.5 mph - N/A   Mostly Cloudy
5:50 PM 78.8 °F - 66.2 °F 65% 30.07 in 10.0 mi ENE 9.2 mph - N/A   Scattered Clouds
6:50 PM 75.2 °F - 66.2 °F 73% 30.07 in 10.0 mi East 9.2 mph - N/A   Clear
7:50 PM 71.6 °F - 68.0 °F 88% 30.08 in 10.0 mi ENE 5.8 mph - N/A   Clear
8:15 PM 69.8 °F - 68.0 °F 94% 30.09 in 10.0 mi Calm Calm - N/A   Clear
8:35 PM 68.0 °F - 66.2 °F 94% 30.09 in 10.0 mi Calm Calm - N/A   Clear
8:55 PM 68.0 °F - 68.0 °F 100% 30.09 in 10.0 mi Calm Calm - N/A   Clear
9:15 PM 66.2 °F - 66.2 °F 100% 30.09 in 10.0 mi Calm Calm - N/A   Clear
9:35 PM 66.2 °F - 66.2 °F 100% 30.10 in 8.0 mi Calm Calm - N/A   Clear
9:55 PM 66.2 °F - 66.2 °F 100% 30.10 in 8.0 mi Calm Calm - N/A   Clear
10:15 PM 64.4 °F - 64.4 °F 100% 30.11 in 5.0 mi Calm Calm - N/A   Clear
10:35 PM 64.4 °F - 64.4 °F 100% 30.11 in 5.0 mi Calm Calm - N/A   Clear
10:55 PM 64.4 °F - 64.4 °F 100% 30.11 in 4.0 mi Calm Calm - N/A   Clear
11:15 PM 64.4 °F - 64.4 °F 100% 30.11 in 3.0 mi Calm Calm - N/A   Clear
11:35 PM 64.4 °F - 64.4 °F 100% 30.10 in 4.0 mi Calm Calm - N/A   Clear
11:55 PM 64.4 °F - 64.4 °F 100% 30.10 in 3.0 mi Calm Calm - N/A   Clear